PBO Station Position Time Series. Reference Frame : NAM14
Format Version,1.1.0
4-character ID,LORS
Station name,LORS_SCGN_CS1998
Begin Date, 1999-09-25
End Date, 2019-10-07
Release Date, 2019-10-08
Reference position, 34.1333270804 North Latitude, -117.7540706631 East Longitude, 448.89081 meters elevation,
Date, North (mm), East (mm), Vertical (mm), North Std. Deviation (mm), East Std. Deviation (mm),              Vertical Std. Deviation (mm), Quality,
1999-09-25,0.00, 0.00, 0.00, 2.19, 1.93, 8.40, repro,
1999-09-26,-2.35, -1.06, -2.10, 2.60, 2.38, 10.17, repro,
1999-09-27,-2.03, -1.44, -4.36, 2.39, 2.10, 9.40, repro,
1999-09-28,-2.04, -1.41, -6.32, 2.43, 2.17, 9.11, repro,
1999-09-29,-1.22, -0.92, -8.51, 2.65, 2.44, 9.99, repro,
1999-09-30,-3.00, -0.72, -3.85, 2.78, 2.45, 10.42, repro,
1999-10-01,-3.39, -0.00, -0.05, 2.83, 2.56, 10.65, repro,
1999-10-02,-1.58, -0.01, -2.03, 2.39, 2.22, 9.16, repro,
1999-10-03,-2.52, -1.80, -9.47, 2.65, 2.38, 10.01, repro,
1999-10-04,-2.01, -1.15, -7.96, 2.26, 2.04, 8.48, repro,
1999-10-05,-1.78, -1.13, -5.94, 2.44, 2.07, 9.05, repro,
1999-10-06,-3.89, -0.21, 5.41, 2.40, 2.10, 8.99, repro,
1999-10-07,-0.05, 0.56, -7.75, 2.51, 2.03, 9.43, repro,
1999-10-08,-1.33, -0.95, -4.96, 2.56, 2.22, 9.51, repro,
1999-10-09,-1.62, -0.93, -4.67, 2.30, 2.01, 8.70, repro,
1999-10-10,-1.89, -0.14, -2.24, 2.28, 1.98, 8.57, repro,
1999-10-11,-2.77, -1.23, -4.38, 2.40, 2.11, 9.02, repro,
1999-10-12,-4.23, -0.43, -3.10, 2.51, 2.15, 9.23, repro,
1999-10-13,-3.12, -1.09, -1.62, 2.56, 2.21, 10.03, repro,
1999-10-14,-3.12, -0.10, -4.15, 2.31, 2.06, 8.69, repro,
1999-10-15,-1.59, -1.90, -1.32, 2.33, 2.09, 8.76, repro,
1999-10-16,-1.40, -1.83, 6.11, 2.27, 1.97, 8.71, repro,
1999-10-17,-0.12, -3.23, -2.80, 2.32, 1.93, 8.89, repro,
1999-10-18,-0.31, -3.80, 5.12, 2.53, 2.08, 9.58, repro,
1999-10-19,0.51, -2.86, 1.38, 2.39, 2.02, 9.11, repro,
1999-10-20,0.40, -3.27, -2.13, 2.20, 1.99, 8.98, repro,
1999-10-21,0.49, -4.10, -2.92, 2.29, 2.09, 9.23, repro,
1999-10-22,-0.26, -4.32, -0.62, 2.41, 2.30, 9.74, repro,
1999-10-23,1.15, -2.64, -5.12, 2.18, 1.96, 8.40, repro,
1999-10-24,1.19, -2.76, 0.24, 2.30, 2.02, 8.80, repro,
1999-10-25,1.49, -3.76, 3.19, 2.20, 2.00, 8.65, repro,
1999-10-26,0.43, -3.10, 10.34, 2.02, 1.80, 8.00, repro,
1999-10-27,0.03, -3.57, 5.93, 2.24, 1.96, 8.65, repro,
1999-10-28,1.40, -3.46, 7.55, 2.19, 1.90, 8.37, repro,
1999-10-29,2.81, -3.24, 5.67, 2.32, 1.98, 8.77, repro,
1999-10-30,1.87, -3.95, 0.41, 2.10, 1.83, 8.12, repro,
1999-10-31,1.35, -3.13, 1.83, 2.48, 2.06, 9.53, repro,
1999-11-01,1.19, -2.81, -4.87, 2.51, 2.11, 9.91, repro,
1999-11-02,1.68, -3.39, 1.16, 2.34, 1.98, 8.99, repro,
1999-11-03,2.69, -2.35, 2.02, 2.48, 2.04, 9.61, repro,
1999-11-04,1.24, -3.65, 5.10, 2.19, 1.85, 8.41, repro,
1999-11-05,1.70, -3.54, 4.87, 2.17, 1.84, 8.36, repro,
1999-11-06,0.83, -3.20, -4.24, 2.17, 1.84, 8.32, repro,
1999-11-07,0.20, -3.38, 4.28, 2.21, 1.89, 8.51, repro,
1999-11-08,2.44, -4.42, 9.70, 2.35, 2.00, 9.14, repro,
1999-11-09,2.03, -4.01, 9.10, 2.08, 1.82, 8.00, repro,
1999-11-10,0.81, -3.52, 4.28, 2.20, 1.89, 8.57, repro,
1999-11-11,1.39, -3.09, 1.69, 2.09, 1.81, 8.13, repro,
1999-11-12,0.99, -3.69, -1.43, 2.27, 1.94, 8.72, repro,
1999-11-13,1.92, -4.29, 5.46, 2.19, 1.86, 8.40, repro,
1999-11-14,1.35, -4.52, 5.70, 2.08, 1.82, 8.10, repro,
1999-11-15,1.10, -4.84, 3.64, 2.28, 1.98, 8.90, repro,
1999-11-16,0.70, -2.84, 7.96, 2.14, 1.90, 8.32, repro,
1999-11-17,-0.48, -4.71, 10.27, 2.08, 1.83, 8.16, repro,
1999-11-18,0.94, -4.06, 5.95, 2.14, 1.85, 8.28, repro,
1999-11-19,0.93, -3.68, 1.03, 2.18, 1.95, 8.46, repro,
1999-11-20,0.69, -3.31, 2.33, 2.16, 1.93, 8.31, repro,
1999-11-21,-0.20, -4.12, 4.20, 2.45, 2.14, 9.64, repro,
1999-11-22,0.72, -4.23, 14.74, 2.18, 1.91, 8.39, repro,
1999-11-23,1.07, -4.54, 0.02, 2.60, 2.47, 10.44, repro,
1999-11-24,1.48, -2.58, -5.36, 2.61, 2.51, 10.74, repro,
1999-11-25,1.25, -0.90, 5.33, 2.36, 2.08, 9.18, repro,
1999-11-26,0.98, -4.18, 2.02, 2.23, 2.17, 8.87, repro,
1999-11-27,0.62, -3.32, 4.27, 2.08, 1.92, 8.32, repro,
1999-11-28,1.31, -3.33, -2.06, 2.07, 1.87, 8.16, repro,
1999-11-29,0.94, -2.73, -0.05, 2.14, 1.95, 8.41, repro,
1999-11-30,2.04, -2.79, 2.90, 2.26, 1.92, 8.72, repro,
1999-12-01,0.68, -3.99, 3.58, 2.34, 2.21, 9.27, repro,
1999-12-02,1.59, -3.21, 0.86, 2.01, 1.83, 8.02, repro,
1999-12-03,0.74, -3.78, 9.14, 2.45, 2.33, 10.05, repro,
1999-12-04,-0.51, -4.63, -0.60, 2.41, 2.11, 9.10, repro,
1999-12-05,0.54, -3.36, -5.60, 2.13, 2.04, 8.60, repro,
1999-12-06,1.12, -2.83, -0.92, 2.46, 2.36, 10.53, repro,
1999-12-07,1.48, -2.99, 9.29, 2.49, 2.30, 10.06, repro,
1999-12-08,-0.27, -2.51, -4.41, 2.71, 2.35, 10.19, repro,
1999-12-09,-0.06, -3.45, 3.65, 2.33, 2.16, 9.31, repro,
1999-12-10,0.26, -5.37, -3.28, 2.05, 1.85, 8.05, repro,
1999-12-11,-5.55, -5.99, 4.91, 2.21, 2.09, 8.89, repro,
1999-12-12,0.68, -4.19, 2.92, 2.39, 2.30, 9.76, repro,
1999-12-13,0.79, -4.40, 3.43, 2.40, 2.43, 9.70, repro,
1999-12-14,-0.20, -4.29, 2.78, 2.43, 2.17, 9.50, repro,
1999-12-15,0.80, -4.28, -1.66, 2.36, 2.07, 9.55, repro,
1999-12-16,0.94, -3.20, 3.95, 2.30, 1.99, 8.95, repro,
1999-12-17,0.78, -4.50, -5.33, 2.43, 2.25, 9.82, repro,
1999-12-18,-1.62, -4.01, -1.99, 2.58, 2.37, 10.34, repro,
1999-12-19,-3.50, -3.37, 8.39, 2.25, 2.07, 8.94, repro,
1999-12-20,1.51, -2.87, 10.00, 2.36, 2.20, 9.61, repro,
1999-12-21,-0.26, -4.16, 0.68, 2.42, 2.13, 9.56, repro,
1999-12-22,1.46, -6.76, 4.19, 2.28, 1.99, 8.96, repro,
1999-12-23,2.39, -3.05, -6.68, 2.38, 2.21, 9.34, repro,
1999-12-24,1.04, -3.28, -9.23, 2.54, 2.48, 10.72, repro,
1999-12-25,1.46, -4.72, -14.57, 2.14, 2.04, 8.65, repro,
1999-12-26,2.08, -4.11, -11.61, 2.36, 2.29, 10.09, repro,
1999-12-27,-0.01, -3.48, -15.10, 2.09, 1.82, 8.14, repro,
1999-12-28,1.19, -3.54, -7.09, 2.29, 1.92, 9.23, repro,
1999-12-29,0.78, -3.68, -4.45, 2.14, 2.02, 8.70, repro,
1999-12-30,0.76, -3.37, -5.56, 2.26, 2.08, 9.37, repro,
1999-12-31,1.07, -2.02, 0.63, 2.20, 2.00, 9.01, repro,
2000-01-01,1.52, -3.84, 2.39, 2.36, 1.94, 9.32, repro,
2000-01-02,1.14, -6.65, 1.03, 2.06, 1.91, 8.17, repro,
2000-01-03,2.10, -3.47, -2.08, 2.04, 1.80, 8.05, repro,
2000-01-04,0.46, -4.45, -13.47, 2.27, 1.97, 9.13, repro,
2000-01-05,1.05, -4.24, -7.92, 2.19, 1.97, 9.15, repro,
2000-01-06,-0.49, -3.59, -6.96, 2.06, 1.79, 8.09, repro,
2000-01-07,1.32, -3.38, -17.72, 2.28, 1.97, 9.29, repro,
2000-01-08,1.17, -3.44, -7.45, 2.02, 1.81, 7.92, repro,
2000-01-09,1.42, -3.35, 0.13, 1.99, 1.79, 7.89, repro,
2000-01-10,1.44, -3.40, -3.44, 2.06, 1.90, 8.39, repro,
2000-01-11,0.58, -2.11, -6.38, 2.03, 1.82, 8.13, repro,
2000-01-12,1.49, -2.84, -7.14, 2.16, 1.94, 8.71, repro,
2000-01-13,0.48, -3.71, -9.83, 2.25, 1.92, 9.28, repro,
2000-01-14,0.17, -4.71, -6.54, 2.31, 2.04, 9.41, repro,
2000-01-15,1.16, -4.41, -6.97, 2.27, 1.94, 9.27, repro,
2000-01-16,0.27, -4.72, -10.37, 2.02, 1.79, 8.10, repro,
2000-01-17,-0.52, -5.18, -6.03, 2.17, 1.86, 8.65, repro,
2000-01-18,0.64, -4.89, 2.38, 2.05, 1.81, 8.15, repro,
2000-01-19,1.09, -4.78, 1.74, 2.14, 1.81, 8.51, repro,
2000-01-20,0.22, -4.00, -0.17, 2.12, 1.80, 8.59, repro,
2000-01-21,0.74, -4.21, 5.65, 1.99, 1.81, 7.97, repro,
2000-01-22,1.07, -4.08, 1.34, 2.18, 1.88, 8.64, repro,
2000-01-23,0.70, -4.27, -0.51, 2.24, 2.04, 9.41, repro,
2000-01-24,1.22, -4.56, 0.07, 2.07, 1.80, 8.12, repro,
2000-01-25,2.53, -4.48, 1.16, 2.08, 1.84, 8.38, repro,
2000-01-26,2.02, -4.09, -4.47, 2.11, 1.76, 8.32, repro,
2000-01-27,4.12, -4.05, -13.37, 2.40, 2.05, 9.36, repro,
2000-01-28,1.84, -4.59, 0.01, 2.13, 1.82, 8.44, repro,
2000-01-29,2.31, -4.00, -3.91, 2.28, 1.88, 9.14, repro,
2000-01-30,1.53, -4.40, -5.65, 2.15, 1.81, 8.69, repro,
2000-01-31,1.66, -3.00, 0.69, 2.21, 1.79, 8.60, repro,
2000-02-01,1.03, -3.92, -16.57, 2.36, 1.97, 9.54, repro,
2000-02-02,1.25, -3.92, -6.77, 2.33, 1.86, 9.34, repro,
2000-02-03,0.22, -5.60, -2.51, 2.35, 1.95, 9.57, repro,
2000-02-04,1.18, -5.07, -1.89, 2.08, 1.89, 8.65, repro,
2000-02-05,2.16, -4.56, -5.75, 2.25, 1.94, 8.95, repro,
2000-02-06,1.06, -3.34, 0.22, 2.08, 1.80, 8.22, repro,
2000-02-07,1.00, -4.53, -10.15, 2.30, 1.96, 9.01, repro,
2000-02-08,2.59, -2.63, -4.66, 2.18, 1.98, 8.85, repro,
2000-02-09,-0.10, -4.88, -0.82, 2.19, 2.04, 8.95, repro,
2000-02-10,2.06, -3.41, -12.21, 2.01, 1.80, 7.92, repro,
2000-02-11,1.74, -4.46, -1.01, 1.98, 1.77, 7.73, repro,
2000-02-12,2.10, -5.17, -3.29, 2.01, 1.77, 7.93, repro,
2000-02-13,1.18, -5.31, -1.43, 1.97, 1.73, 7.70, repro,
2000-02-14,0.30, -4.71, 6.57, 1.99, 1.75, 7.87, repro,
2000-02-15,2.34, -4.72, -7.86, 2.02, 1.74, 7.95, repro,
2000-02-16,1.65, -3.86, -5.17, 2.02, 1.75, 7.93, repro,
2000-02-17,0.46, -5.54, -7.95, 2.00, 1.78, 7.92, repro,
2000-02-18,1.75, -3.83, -14.80, 1.98, 1.75, 7.80, repro,
2000-02-19,1.48, -4.72, -7.56, 2.00, 1.75, 7.88, repro,
2000-02-20,1.64, -4.31, -6.22, 2.06, 1.78, 8.02, repro,
2000-02-21,0.76, -4.61, -12.42, 2.12, 1.88, 8.24, repro,
2000-02-22,2.80, -2.98, -11.76, 2.02, 1.74, 7.87, repro,
2000-02-23,2.15, -4.58, -12.27, 2.02, 1.80, 7.98, repro,
2000-02-24,1.33, -5.87, -11.09, 2.02, 1.79, 7.87, repro,
2000-02-25,2.71, -5.10, -8.36, 1.97, 1.74, 7.78, repro,
2000-02-26,2.04, -4.91, -7.04, 2.31, 2.08, 8.96, repro,
2000-02-27,2.61, -4.01, -12.85, 1.98, 1.72, 7.72, repro,
2000-02-28,0.70, -4.26, -11.57, 2.13, 1.84, 8.29, repro,
2000-02-29,1.72, -4.14, -9.08, 2.35, 1.99, 9.50, repro,
2000-03-01,0.99, -4.57, -12.51, 2.40, 2.42, 10.09, repro,
2000-03-02,1.76, -3.63, -12.95, 2.04, 1.80, 8.08, repro,
2000-03-03,0.44, -3.62, -7.72, 2.21, 1.95, 9.10, repro,
2000-03-04,3.48, -5.28, -4.26, 2.26, 2.06, 8.97, repro,
2000-03-05,1.43, -4.51, -3.90, 2.19, 1.85, 8.53, repro,
2000-03-06,3.03, -4.07, -7.12, 2.25, 1.92, 8.91, repro,
2000-03-07,2.76, -3.30, -6.58, 2.31, 2.10, 9.13, repro,
2000-03-08,1.77, -5.08, -5.63, 2.16, 1.85, 8.60, repro,
2000-03-09,1.72, -4.16, -16.61, 2.24, 1.89, 8.79, repro,
2000-03-10,1.46, -4.66, -16.71, 2.31, 1.97, 8.89, repro,
2000-03-11,2.48, -4.80, -17.82, 2.24, 1.91, 8.71, repro,
2000-03-12,1.73, -3.48, -13.11, 2.60, 2.14, 10.48, repro,
2000-03-13,2.75, -6.97, -14.86, 2.71, 2.24, 10.93, repro,
2000-03-14,1.56, -4.92, -8.65, 2.23, 2.01, 9.02, repro,
2000-03-15,0.84, -4.77, -6.58, 2.18, 1.89, 8.56, repro,
2000-03-16,2.45, -5.10, -13.28, 2.32, 2.02, 9.30, repro,
2000-03-17,2.59, -4.60, -12.52, 2.22, 1.94, 8.94, repro,
2000-03-18,2.43, -5.49, -7.17, 2.11, 1.85, 8.21, repro,
2000-03-19,2.56, -4.85, -7.45, 2.08, 1.78, 7.95, repro,
2000-03-20,1.04, -6.93, 11.25, 2.45, 2.06, 9.80, repro,
2000-03-21,0.22, -4.45, -9.25, 2.36, 1.87, 9.01, repro,
2000-03-22,3.35, -6.09, -3.81, 2.24, 1.97, 8.84, repro,
2000-03-23,2.86, -5.24, -7.74, 2.19, 1.89, 8.49, repro,
2000-03-24,1.34, -4.26, -8.98, 2.20, 1.95, 8.62, repro,
2000-03-25,2.74, -4.48, -3.97, 2.11, 1.78, 8.22, repro,
2000-03-26,2.47, -4.46, -11.47, 2.22, 1.83, 8.49, repro,
2000-03-27,3.48, -3.47, -5.62, 2.31, 1.86, 8.99, repro,
2000-03-28,0.48, -3.53, -3.24, 2.14, 1.77, 8.17, repro,
2000-03-29,1.74, -3.47, -3.85, 2.13, 1.76, 8.23, repro,
2000-03-30,1.84, -4.00, -12.68, 2.11, 1.74, 8.08, repro,
2000-03-31,1.66, -4.03, -6.61, 2.18, 1.82, 8.42, repro,
2000-04-01,2.30, -2.56, -6.39, 2.16, 1.82, 8.43, repro,
2000-04-02,3.68, -4.92, -4.18, 2.18, 1.83, 8.51, repro,
2000-04-03,2.12, -4.26, -8.34, 2.10, 1.75, 8.11, repro,
2000-04-04,3.17, -3.10, -9.43, 2.11, 1.74, 8.07, repro,
2000-04-05,2.33, -4.25, -6.08, 2.12, 1.74, 8.06, repro,
2000-04-06,3.13, -3.71, -4.83, 2.19, 1.79, 8.33, repro,
2000-04-07,1.14, -4.01, -11.61, 2.23, 1.81, 8.53, repro,
2000-04-08,2.44, -3.75, -21.52, 2.14, 1.88, 8.46, repro,
2000-04-09,0.81, -4.00, 1.97, 2.54, 2.20, 10.11, repro,
2000-04-10,2.04, -4.45, -10.19, 2.06, 1.77, 8.09, repro,
2000-04-11,1.16, -4.12, -5.14, 2.04, 1.72, 7.95, repro,
2000-04-12,1.73, -2.89, -3.51, 2.15, 1.78, 8.50, repro,
2000-04-13,2.90, -4.91, -5.12, 2.15, 1.81, 8.60, repro,
2000-04-14,1.83, -4.45, -4.94, 2.11, 1.74, 8.18, repro,
2000-04-15,2.92, -4.82, -3.18, 2.12, 1.87, 8.21, repro,
2000-04-16,1.89, -5.72, -6.41, 2.04, 1.73, 8.02, repro,
2000-04-17,3.52, -5.82, -8.59, 2.09, 1.80, 8.15, repro,
2000-04-18,4.75, -5.18, -11.20, 2.09, 1.82, 8.28, repro,
2000-04-19,2.64, -3.10, -5.24, 2.08, 1.79, 8.27, repro,
2000-04-20,2.84, -3.86, -10.56, 2.07, 1.75, 8.16, repro,
2000-04-21,2.82, -4.32, -11.84, 2.13, 1.84, 8.37, repro,
2000-04-22,-0.40, -3.24, -2.91, 2.05, 1.73, 8.01, repro,
2000-04-23,2.18, -4.25, -5.91, 2.10, 1.81, 8.20, repro,
2000-04-24,2.73, -4.92, -9.19, 2.09, 1.75, 8.21, repro,
2000-04-25,1.90, -3.62, -12.20, 2.05, 1.74, 8.08, repro,
2000-04-26,2.55, -4.44, -9.04, 2.06, 1.80, 8.10, repro,
2000-04-27,2.59, -4.05, -9.12, 2.11, 1.80, 8.13, repro,
2000-04-28,2.15, -4.68, -9.46, 2.07, 1.82, 8.21, repro,
2000-04-29,2.56, -5.23, -4.36, 2.27, 1.97, 8.82, repro,
2000-04-30,3.68, -4.16, -11.39, 2.19, 1.98, 8.71, repro,
2000-05-01,2.28, -4.70, -7.68, 2.12, 1.88, 8.33, repro,
2000-05-02,2.69, -3.93, -7.92, 2.14, 1.90, 8.36, repro,
2000-05-03,2.37, -5.01, -3.76, 2.27, 2.06, 8.83, repro,
2000-05-04,3.45, -4.29, -3.40, 2.08, 1.82, 8.21, repro,
2000-05-05,2.44, -4.04, -0.72, 2.05, 1.74, 8.03, repro,
2000-05-06,2.37, -5.01, 0.20, 2.06, 1.82, 8.19, repro,
2000-05-07,1.74, -4.74, 6.20, 2.10, 1.83, 8.26, repro,
2000-05-08,2.63, -3.03, 5.49, 2.13, 1.85, 8.33, repro,
2000-05-09,2.76, -3.87, 0.27, 2.08, 1.81, 8.14, repro,
2000-05-10,2.76, -5.65, 3.64, 2.07, 1.82, 8.13, repro,
2000-05-11,2.99, -4.02, -0.28, 2.07, 1.82, 8.15, repro,
2000-05-12,2.17, -3.50, 4.17, 2.07, 1.83, 8.17, repro,
2000-05-13,2.13, -5.01, -1.23, 2.08, 1.82, 8.10, repro,
2000-05-14,3.00, -5.76, 2.81, 2.09, 1.81, 8.12, repro,
2000-05-15,1.87, -5.02, -3.39, 2.10, 1.76, 8.07, repro,
2000-05-16,1.61, -5.43, 4.70, 2.15, 1.94, 8.43, repro,
2000-05-17,1.93, -5.16, -1.89, 2.11, 1.86, 8.33, repro,
2000-05-18,2.83, -5.44, 4.38, 2.08, 1.75, 8.09, repro,
2000-05-19,3.24, -5.39, -4.89, 2.03, 1.73, 7.96, repro,
2000-05-20,2.28, -4.68, 1.23, 2.05, 1.73, 7.95, repro,
2000-05-21,0.96, -4.11, 1.15, 2.07, 1.78, 8.16, repro,
2000-05-22,1.25, -4.83, -6.66, 2.04, 1.74, 8.14, repro,
2000-05-23,1.78, -3.64, -2.37, 2.21, 1.80, 8.43, repro,
2000-05-24,3.24, -5.04, 5.67, 2.19, 1.90, 8.51, repro,
2000-05-25,0.56, -4.13, 4.35, 2.07, 1.80, 8.34, repro,
2000-05-26,1.11, -4.13, 5.89, 2.07, 1.73, 8.06, repro,
2000-05-27,2.30, -4.86, -0.36, 2.07, 1.75, 8.21, repro,
2000-05-28,3.08, -4.58, -2.10, 2.08, 1.76, 8.29, repro,
2000-05-29,2.62, -3.72, 2.62, 2.06, 1.80, 8.19, repro,
2000-05-30,2.28, -4.10, -7.03, 2.02, 1.73, 7.98, repro,
2000-05-31,2.16, -5.31, -1.01, 2.07, 1.78, 8.22, repro,
2000-06-01,2.11, -5.01, -8.19, 2.09, 1.74, 8.12, repro,
2000-06-02,2.81, -4.27, -2.13, 1.98, 1.72, 7.73, repro,
2000-06-03,3.58, -4.75, -0.94, 2.04, 1.74, 8.01, repro,
2000-06-04,2.45, -4.75, -0.77, 2.03, 1.83, 8.01, repro,
2000-06-05,2.29, -3.90, 2.53, 1.95, 1.70, 7.59, repro,
2000-06-06,3.06, -4.92, 2.68, 1.96, 1.71, 7.62, repro,
2000-06-07,2.67, -5.82, 0.50, 2.05, 1.87, 8.20, repro,
2000-06-08,0.62, -4.64, 1.03, 1.98, 1.73, 7.75, repro,
2000-06-09,2.81, -5.27, -0.29, 2.00, 1.74, 7.89, repro,
2000-06-10,3.30, -4.53, 2.29, 1.96, 1.71, 7.65, repro,
2000-06-11,2.87, -5.42, 4.72, 1.97, 1.72, 7.73, repro,
2000-06-12,2.40, -5.08, 4.37, 2.02, 1.79, 7.90, repro,
2000-06-13,1.53, -5.61, -1.72, 1.96, 1.72, 7.71, repro,
2000-06-14,1.70, -5.61, 4.04, 1.98, 1.73, 7.80, repro,
2000-06-15,2.57, -5.45, 1.46, 2.12, 1.83, 8.48, repro,
2000-06-16,1.61, -5.92, 3.00, 2.01, 1.76, 8.05, repro,
2000-06-17,2.89, -4.94, 3.42, 1.98, 1.75, 7.81, repro,
2000-06-18,1.54, -6.07, 5.61, 2.01, 1.81, 7.93, repro,
2000-06-19,2.42, -5.12, 4.12, 2.02, 1.76, 8.05, repro,
2000-06-20,3.04, -5.39, 0.42, 2.01, 1.75, 8.05, repro,
2000-06-21,1.63, -4.86, 8.25, 2.06, 1.81, 8.15, repro,
2000-06-22,1.54, -4.70, 6.97, 2.14, 1.82, 8.52, repro,
2000-06-23,1.62, -5.38, 2.47, 2.16, 1.78, 8.40, repro,
2000-06-24,1.62, -5.80, -1.70, 2.02, 1.75, 8.03, repro,
2000-06-25,2.95, -6.86, -3.01, 1.99, 1.73, 7.76, repro,
2000-06-26,1.52, -4.84, 1.58, 2.12, 1.77, 8.37, repro,
2000-06-27,2.05, -5.44, 7.97, 2.21, 1.81, 8.55, repro,
2000-06-28,1.76, -5.71, 1.50, 2.12, 1.74, 8.29, repro,
2000-06-29,2.45, -5.30, 7.10, 2.08, 1.80, 8.29, repro,
2000-06-30,1.80, -4.28, -0.65, 2.03, 1.73, 7.94, repro,
2000-07-01,0.29, -5.12, 3.95, 2.07, 1.74, 8.21, repro,
2000-07-02,1.81, -5.10, 6.19, 2.10, 1.80, 8.42, repro,
2000-07-03,2.63, -5.90, 2.79, 2.08, 1.76, 8.27, repro,
2000-07-04,1.32, -5.67, 1.67, 2.08, 1.76, 8.25, repro,
2000-07-05,1.72, -4.50, -2.06, 2.08, 1.76, 8.28, repro,
2000-07-06,2.16, -5.28, -0.94, 2.03, 1.73, 7.93, repro,
2000-07-07,2.37, -4.68, -2.73, 2.04, 1.72, 7.96, repro,
2000-07-08,2.15, -4.46, -2.20, 2.03, 1.73, 7.96, repro,
2000-07-09,2.19, -4.27, -10.86, 2.11, 1.75, 8.22, repro,
2000-07-10,2.31, -6.85, 3.75, 2.12, 1.83, 8.35, repro,
2000-07-11,2.86, -6.50, 6.72, 2.03, 1.73, 7.99, repro,
2000-07-12,2.35, -4.62, 0.31, 2.03, 1.72, 7.95, repro,
2000-07-13,2.21, -4.87, -4.88, 2.09, 1.75, 8.25, repro,
2000-07-14,2.50, -5.89, 4.64, 2.09, 1.74, 8.15, repro,
2000-07-15,1.67, -5.79, -1.15, 2.15, 1.81, 8.53, repro,
2000-07-16,2.36, -4.26, -3.61, 2.07, 1.75, 8.06, repro,
2000-07-17,2.18, -4.12, -4.32, 2.06, 1.79, 8.13, repro,
2000-07-18,2.79, -5.22, -1.18, 2.08, 1.81, 8.24, repro,
2000-07-19,2.66, -5.72, -1.38, 2.18, 1.83, 8.54, repro,
2000-07-20,2.59, -5.74, 2.21, 2.04, 1.74, 7.99, repro,
2000-07-21,3.30, -5.33, -0.10, 2.05, 1.79, 8.02, repro,
2000-07-22,2.35, -4.91, 1.27, 2.13, 1.81, 8.55, repro,
2000-07-23,3.17, -5.76, -0.33, 2.08, 1.75, 8.19, repro,
2000-07-24,2.62, -5.35, 2.61, 2.05, 1.74, 8.00, repro,
2000-07-25,2.96, -5.70, 5.85, 2.08, 1.78, 8.10, repro,
2000-07-26,3.08, -5.84, -0.44, 2.08, 1.77, 8.05, repro,
2000-07-27,1.82, -5.06, 5.31, 2.17, 1.78, 8.30, repro,
2000-07-28,2.17, -5.39, 8.59, 2.20, 1.85, 8.59, repro,
2000-07-29,1.65, -6.25, 2.74, 2.19, 1.82, 8.59, repro,
2000-07-30,1.93, -4.82, 8.18, 2.08, 1.74, 7.95, repro,
2000-07-31,3.14, -5.42, 2.78, 2.09, 1.75, 8.04, repro,
2000-08-01,2.36, -5.26, 2.35, 2.18, 1.88, 8.83, repro,
2000-08-02,3.00, -4.96, -1.76, 2.12, 1.83, 8.41, repro,
2000-08-03,1.69, -4.24, 5.02, 2.10, 1.82, 8.37, repro,
2000-08-04,2.55, -3.40, 3.00, 2.23, 1.90, 8.70, repro,
2000-08-05,3.01, -5.13, 4.25, 2.09, 1.80, 8.25, repro,
2000-08-06,2.27, -3.60, 5.16, 2.21, 1.82, 8.63, repro,
2000-08-07,2.22, -4.97, 1.39, 2.19, 1.85, 8.42, repro,
2000-08-08,1.87, -3.98, 7.67, 2.05, 1.77, 7.99, repro,
2000-08-09,1.27, -4.93, 6.09, 2.24, 1.89, 8.72, repro,
2000-08-10,1.53, -3.94, 11.87, 2.43, 1.89, 9.13, repro,
2000-08-11,3.12, -5.48, 3.63, 2.15, 1.82, 8.43, repro,
2000-08-12,3.32, -4.28, -2.30, 2.17, 1.84, 8.50, repro,
2000-08-13,2.21, -4.38, 3.03, 2.20, 1.79, 8.48, repro,
2000-08-14,1.69, -4.14, 6.32, 2.16, 1.83, 8.53, repro,
2000-08-15,1.42, -3.08, 3.71, 2.14, 1.81, 8.26, repro,
2000-08-16,2.97, -4.05, 3.56, 2.21, 1.79, 8.34, repro,
2000-08-17,3.00, -4.69, 0.54, 2.29, 1.82, 8.65, repro,
2000-08-18,1.59, -4.79, -1.10, 2.30, 1.91, 8.82, repro,
2000-08-19,3.52, -4.15, -0.66, 2.23, 1.87, 8.61, repro,
2000-08-20,3.47, -3.41, 2.87, 2.21, 1.85, 8.60, repro,
2000-08-21,2.67, -5.61, 7.92, 2.11, 1.77, 8.18, repro,
2000-08-22,2.85, -5.06, 0.16, 2.17, 1.76, 8.30, repro,
2000-08-23,2.67, -4.96, -2.46, 2.10, 1.76, 8.09, repro,
2000-08-24,3.67, -4.82, -4.65, 2.33, 1.84, 9.02, repro,
2000-08-25,2.38, -4.88, 5.89, 2.27, 1.84, 8.63, repro,
2000-08-26,2.09, -4.43, -3.30, 2.22, 1.82, 8.56, repro,
2000-08-27,3.06, -5.52, 9.80, 2.19, 1.93, 8.76, repro,
2000-08-28,3.17, -3.58, 0.25, 2.23, 1.83, 8.62, repro,
2000-08-29,2.17, -5.20, -1.92, 2.20, 1.90, 8.63, repro,
2000-08-30,1.23, -5.21, -7.42, 2.31, 1.87, 8.80, repro,
2000-08-31,3.01, -4.71, -0.88, 2.16, 1.78, 8.27, repro,
2000-09-01,2.70, -4.75, 3.48, 2.16, 1.77, 8.26, repro,
2000-09-02,4.12, -5.55, 1.15, 2.21, 1.85, 8.34, repro,
2000-09-03,4.54, -3.82, 1.29, 2.13, 1.78, 8.14, repro,
2000-09-04,2.21, -4.33, 2.92, 2.30, 1.90, 8.65, repro,
2000-09-05,4.21, -5.63, -4.72, 2.35, 1.93, 9.02, repro,
2000-09-06,3.50, -4.51, -0.05, 2.14, 1.78, 8.27, repro,
2000-09-07,4.04, -5.18, 2.55, 2.19, 1.91, 8.44, repro,
2000-09-08,3.85, -4.21, 2.31, 2.29, 1.90, 8.65, repro,
2000-09-09,3.64, -4.13, 1.21, 2.24, 1.85, 8.67, repro,
2000-09-10,2.04, -4.12, 0.80, 2.23, 1.88, 8.74, repro,
2000-09-11,2.93, -4.68, 3.72, 2.22, 1.84, 8.41, repro,
2000-09-12,4.66, -2.74, -0.02, 2.27, 1.94, 8.91, repro,
2000-09-13,3.30, -4.72, -4.60, 2.37, 1.96, 9.51, repro,
2000-09-14,2.85, -1.49, -2.47, 2.38, 1.96, 9.28, repro,
2000-09-15,2.47, -5.02, 11.42, 2.18, 1.84, 8.48, repro,
2000-09-16,3.26, -4.76, 0.77, 2.07, 1.83, 8.12, repro,
2000-09-17,1.97, -4.51, 3.29, 2.18, 1.84, 8.43, repro,
2000-09-18,3.06, -3.76, 1.78, 2.09, 1.80, 8.19, repro,
2000-09-19,1.16, -5.51, -0.84, 2.18, 1.83, 8.44, repro,
2000-09-20,3.30, -4.11, -2.32, 2.40, 1.94, 9.11, repro,
2000-09-21,1.24, -3.82, -1.23, 2.43, 2.12, 9.51, repro,
2000-09-22,2.27, -3.53, -0.99, 2.51, 2.19, 9.59, repro,
2000-09-23,3.47, -4.50, -2.16, 2.28, 1.96, 8.70, repro,
2000-09-24,2.11, -4.14, -4.19, 2.33, 1.99, 8.87, repro,
2000-09-25,2.31, -3.86, -5.03, 2.34, 1.96, 9.19, repro,
2000-09-26,1.60, -4.38, -2.14, 2.12, 1.86, 8.39, repro,
2000-09-27,1.74, -4.55, -7.24, 2.20, 1.87, 8.66, repro,
2000-09-28,2.93, -5.10, 3.57, 2.16, 2.00, 8.63, repro,
2000-09-29,0.92, -3.83, 1.98, 2.22, 1.87, 8.72, repro,
2000-09-30,2.04, -5.94, 0.45, 2.03, 1.81, 7.89, repro,
2000-10-01,1.66, -5.91, -0.64, 2.08, 1.81, 8.19, repro,
2000-10-02,1.81, -4.46, 0.68, 2.18, 1.93, 8.38, repro,
2000-10-03,0.44, -5.82, -0.25, 2.06, 1.81, 8.17, repro,
2000-10-04,1.91, -5.26, 10.07, 2.13, 1.82, 8.40, repro,
2000-10-05,1.22, -3.95, 6.67, 2.09, 1.92, 8.22, repro,
2000-10-06,2.12, -4.89, -5.49, 2.01, 1.75, 7.87, repro,
2000-10-07,2.30, -4.73, 1.21, 2.02, 1.77, 8.04, repro,
2000-10-08,2.96, -5.10, 1.12, 1.98, 1.76, 7.87, repro,
2000-10-09,3.45, -4.75, 0.44, 2.01, 1.75, 7.91, repro,
2000-10-10,3.69, -4.18, 9.95, 2.10, 1.79, 8.23, repro,
2000-10-11,3.13, -3.77, -2.35, 2.08, 1.77, 8.13, repro,
2000-10-12,2.59, -4.79, -8.19, 2.16, 1.99, 8.46, repro,
2000-10-13,2.33, -3.09, -2.40, 2.06, 1.85, 8.13, repro,
2000-10-14,2.79, -5.00, 2.81, 2.14, 1.83, 8.38, repro,
2000-10-15,1.88, -5.77, 4.00, 2.36, 2.06, 9.36, repro,
2000-10-16,2.63, -3.90, 4.62, 2.12, 1.84, 8.23, repro,
2000-10-17,3.34, -5.67, 4.17, 2.16, 1.84, 8.32, repro,
2000-10-18,3.52, -4.88, 2.06, 2.09, 1.81, 8.04, repro,
2000-10-19,2.15, -4.21, 2.27, 2.26, 1.94, 9.18, repro,
2000-10-20,2.65, -5.10, -5.43, 2.42, 2.11, 9.63, repro,
2000-10-21,3.41, -5.43, -0.54, 2.44, 2.08, 9.44, repro,
2000-10-22,2.92, -7.13, 9.64, 2.09, 1.80, 8.21, repro,
2000-10-23,3.48, -5.83, 1.01, 2.44, 2.11, 9.56, repro,
2000-10-24,2.75, -4.52, -1.28, 2.08, 1.76, 8.17, repro,
2000-10-25,3.49, -4.51, -0.47, 2.06, 1.82, 7.97, repro,
2000-10-26,3.33, -5.28, 0.43, 2.09, 1.77, 8.19, repro,
2000-10-27,2.22, -4.91, 12.18, 2.18, 1.86, 8.61, repro,
2000-10-28,2.98, -5.40, 2.92, 2.19, 1.92, 8.49, repro,
2000-10-29,3.21, -4.93, -0.41, 2.10, 1.76, 8.22, repro,
2000-10-30,2.96, -4.58, 0.99, 2.13, 1.87, 8.27, repro,
2000-10-31,3.14, -5.97, -7.67, 2.14, 1.88, 8.34, repro,
2000-11-01,2.05, -5.30, -1.02, 3.38, 3.29, 14.97, repro,
2000-11-02,3.16, -5.35, 0.92, 2.10, 1.90, 8.34, repro,
2000-11-03,1.11, -6.41, 10.07, 2.21, 1.97, 8.62, repro,
2000-11-04,2.49, -5.59, 5.28, 2.07, 1.81, 8.13, repro,
2000-11-05,1.75, -6.05, 4.95, 2.21, 1.89, 8.63, repro,
2000-11-06,1.19, -3.30, -4.86, 2.13, 1.86, 8.42, repro,
2000-11-07,-0.18, -6.58, 8.95, 2.23, 1.94, 8.84, repro,
2000-11-08,3.43, -6.42, 1.79, 2.23, 1.92, 8.51, repro,
2000-11-09,4.07, -4.82, 4.69, 2.26, 1.94, 8.67, repro,
2000-11-10,2.49, -4.84, 0.92, 2.32, 1.94, 9.16, repro,
2000-11-11,1.52, -5.30, -2.93, 2.20, 1.86, 8.81, repro,
2000-11-12,3.18, -4.93, -0.99, 2.01, 1.76, 7.98, repro,
2000-11-13,3.26, -4.37, -1.65, 2.10, 1.88, 8.19, repro,
2000-11-14,2.42, -6.61, 4.15, 2.15, 1.97, 8.31, repro,
2000-11-15,3.71, -4.78, -2.59, 2.24, 1.96, 9.06, repro,
2000-11-16,2.91, -4.42, 7.74, 2.18, 1.91, 8.47, repro,
2000-11-17,1.96, -4.02, 5.49, 2.07, 1.83, 8.13, repro,
2000-11-18,1.71, -3.61, 0.67, 2.11, 1.89, 8.26, repro,